TimePST,TemperatureF,Dew PointF,Humidity,Sea Level PressureIn,VisibilityMPH,Wind Direction,Wind SpeedMPH,Gust SpeedMPH,PrecipitationIn,Events,Conditions,WindDirDegrees,DateUTC
12:53 AM,41.0,37.9,89,30.18,7.0,South,4.6,-,N/A,,Overcast,180,2012-11-25 08:53:00
1:53 AM,39.9,37.0,89,30.19,8.0,South,4.6,-,N/A,,Mostly Cloudy,170,2012-11-25 09:53:00
2:53 AM,39.0,37.0,93,30.20,8.0,South,3.5,-,N/A,,Scattered Clouds,180,2012-11-25 10:53:00
3:53 AM,37.9,36.0,93,30.21,9.0,South,3.5,-,N/A,,Clear,170,2012-11-25 11:53:00
4:53 AM,36.0,34.0,93,30.23,9.0,SSE,4.6,-,N/A,,Clear,160,2012-11-25 12:53:00
5:53 AM,36.0,33.1,89,30.24,10.0,SSE,4.6,-,N/A,,Clear,160,2012-11-25 13:53:00
6:53 AM,35.1,32.0,89,30.25,10.0,South,5.8,-,N/A,,Clear,180,2012-11-25 14:53:00
7:53 AM,33.1,30.0,89,30.27,10.0,Calm,Calm,-,N/A,,Partly Cloudy,0,2012-11-25 15:53:00
8:53 AM,37.9,34.0,86,30.29,10.0,East,4.6,-,N/A,,Clear,90,2012-11-25 16:53:00
9:53 AM,41.0,35.1,79,30.30,10.0,South,5.8,-,N/A,,Clear,180,2012-11-25 17:53:00
10:53 AM,43.0,36.0,76,30.30,10.0,South,3.5,-,N/A,,Clear,190,2012-11-25 18:53:00
11:53 AM,44.1,33.1,65,30.30,10.0,West,4.6,-,N/A,,Partly Cloudy,270,2012-11-25 19:53:00
12:53 PM,44.1,30.9,60,30.30,10.0,West,4.6,-,N/A,,Clear,280,2012-11-25 20:53:00
1:53 PM,45.0,30.0,56,30.30,10.0,West,5.8,-,N/A,,Clear,280,2012-11-25 21:53:00
2:53 PM,44.1,30.9,60,30.31,10.0,West,4.6,-,N/A,,Clear,280,2012-11-25 22:53:00
3:53 PM,43.0,32.0,65,30.32,10.0,Calm,Calm,-,N/A,,Clear,0,2012-11-25 23:53:00
4:53 PM,37.9,34.0,86,30.32,10.0,Calm,Calm,-,N/A,,Clear,0,2012-11-26 00:53:00
5:53 PM,37.0,30.9,79,30.33,10.0,Calm,Calm,-,N/A,,Clear,0,2012-11-26 01:53:00
6:53 PM,33.1,30.0,89,30.34,10.0,East,8.1,-,N/A,,Clear,90,2012-11-26 02:53:00
7:53 PM,33.1,28.9,85,30.35,10.0,ESE,4.6,-,N/A,,Clear,120,2012-11-26 03:53:00
8:53 PM,32.0,28.9,88,30.34,10.0,East,6.9,-,N/A,,Clear,80,2012-11-26 04:53:00
9:53 PM,32.0,28.0,85,30.34,10.0,ESE,3.5,-,N/A,,Clear,120,2012-11-26 05:53:00
10:53 PM,32.0,28.9,88,30.32,10.0,SE,3.5,-,N/A,,Clear,130,2012-11-26 06:53:00
11:53 PM,32.0,30.0,92,30.33,10.0,South,3.5,-,N/A,,Clear,170,2012-11-26 07:53:00